{"data":{"norad_id":53996,"intl_designator":"2022-125AJ","name":"STARLINK-5131","alt_names":[],"object_type":"PAYLOAD","status":"ACTIVE","operator":null,"country":"US","launch_date":"2022-10-05","launch_site_code":"AFWTR","launch_vehicle":null,"mission":null,"orbit_class":"UNKNOWN","rcs_meters":null,"size_class":null,"mass_kg":null,"dimensions":null,"purposes":["comms"],"wikipedia_slug":null,"has_3d_model":false,"image_url":null,"decayed_at":null,"tle_current":{"epoch":"2026-05-24T15:49:29.393472Z","epoch_age_seconds":104480,"freshness":"FRESH","line1":"1 53996U 22125AJ  26144.65936798 -.00000480  00000+0 -12099-4 0  9992","line2":"2 53996  53.2156 232.9168 0001198  91.8640 268.2490 15.08835466200935","mean_motion":15.08835466,"eccentricity":0.0001198,"inclination_deg":53.2156,"raan_deg":232.9168,"arg_perigee_deg":91.864,"mean_anomaly_deg":268.249,"bstar":-1.2099e-5,"rev_number":20093,"period_min":95.437841464418,"perigee_km":538.92848389209,"apogee_km":540.58601135382,"semimajor_km":6917.894247623,"source":"CELESTRAK","updated_at":"2026-05-25T13:38:17.622923Z"}}}